Time,TemperatureF,DewpointF,PressureIn,WindDirection,WindDirectionDegrees,WindSpeedMPH,WindSpeedGustMPH,Humidity,HourlyPrecipIn,Conditions,Clouds,dailyrainin,SoftwareType,DateUTC
2013-04-14 00:00:00,60.3,36.4,29.97,NW,307,5.5,15.5,41,0.00,,CLR,0.00,VWS V14.00,2013-04-14 04:00:00,
2013-04-14 00:01:00,59.7,36.2,29.97,NNW,330,0.0,0.0,41,0.00,,CLR,0.00,VWS V14.00,2013-04-14 04:01:00,
2013-04-14 00:02:00,59.7,36.3,29.97,NNW,330,0.0,0.0,42,0.00,,CLR,0.00,VWS V14.00,2013-04-14 04:02:00,
2013-04-14 00:03:00,59.5,36.4,29.97,NNW,330,0.0,0.0,42,0.00,,CLR,0.00,VWS V14.00,2013-04-14 04:03:00,
2013-04-14 00:04:00,59.7,36.5,29.97,NNW,330,0.0,0.0,42,0.00,,CLR,0.00,VWS V14.00,2013-04-14 04:04:00,
2013-04-14 00:05:00,60.5,36.2,29.97,NNW,328,0.0,0.0,40,0.00,,CLR,0.00,VWS V14.00,2013-04-14 04:05:00,
2013-04-14 00:06:00,59.3,36.5,29.97,NNW,330,0.0,0.0,42,0.00,,CLR,0.00,VWS V14.00,2013-04-14 04:06:00,
2013-04-14 00:10:00,60.8,36.6,29.97,NNW,328,0.0,2.4,40,0.00,,CLR,0.00,VWS V14.00,2013-04-14 04:10:00,
2013-04-14 00:15:00,60.9,36.5,29.97,NNW,330,0.0,4.2,40,0.00,,CLR,0.00,VWS V14.00,2013-04-14 04:15:00,
2013-04-14 00:20:00,60.5,36.0,29.97,NNW,330,0.0,0.0,40,0.00,,CLR,0.00,VWS V14.00,2013-04-14 04:20:00,
2013-04-14 00:25:00,60.8,36.5,29.97,NNW,330,0.0,0.0,40,0.00,,CLR,0.00,VWS V14.00,2013-04-14 04:25:00,
2013-04-14 00:30:00,60.6,36.2,29.97,NNW,330,0.0,0.0,40,0.00,,CLR,0.00,VWS V14.00,2013-04-14 04:30:00,
2013-04-14 00:35:00,60.6,36.1,29.97,NNW,330,0.0,0.0,40,0.00,,CLR,0.00,VWS V14.00,2013-04-14 04:35:00,
2013-04-14 00:40:00,60.9,36.4,29.97,NNW,330,0.0,0.0,40,0.00,,CLR,0.00,VWS V14.00,2013-04-14 04:40:00,
2013-04-14 00:45:00,60.6,36.5,29.97,NNW,330,0.0,0.0,40,0.00,,CLR,0.00,VWS V14.00,2013-04-14 04:45:00,
2013-04-14 00:50:00,60.1,36.4,29.97,NNW,330,0.0,0.0,41,0.00,,CLR,0.00,VWS V14.00,2013-04-14 04:50:00,
2013-04-14 00:55:00,59.6,36.0,29.97,NNW,330,0.0,0.0,41,0.00,,CLR,0.00,VWS V14.00,2013-04-14 04:55:00,
2013-04-14 01:00:00,59.3,35.8,29.97,NNW,330,0.0,0.0,41,0.00,,CLR,0.00,VWS V14.00,2013-04-14 05:00:00,
2013-04-14 01:06:00,59.2,36.1,29.97,NNW,330,0.0,0.0,42,0.00,,CLR,0.00,VWS V14.00,2013-04-14 05:06:00,
2013-04-14 01:11:00,58.8,36.1,29.97,NNW,330,0.0,0.0,43,0.00,,CLR,0.00,VWS V14.00,2013-04-14 05:11:00,
2013-04-14 01:16:00,58.8,35.7,29.97,NNW,330,0.0,0.0,42,0.00,,CLR,0.00,VWS V14.00,2013-04-14 05:16:00,
2013-04-14 01:21:00,59.5,36.8,29.97,NNW,330,0.0,0.0,43,0.00,,CLR,0.00,VWS V14.00,2013-04-14 05:21:00,
2013-04-14 01:26:00,59.1,36.3,29.97,NNW,330,0.0,0.0,42,0.00,,CLR,0.00,VWS V14.00,2013-04-14 05:26:00,
2013-04-14 01:31:00,59.4,36.1,29.98,NNW,330,0.0,0.0,42,0.00,,CLR,0.00,VWS V14.00,2013-04-14 05:31:00,
2013-04-14 01:36:00,59.4,36.0,29.98,NNW,330,0.0,0.0,41,0.00,,CLR,0.00,VWS V14.00,2013-04-14 05:36:00,
2013-04-14 01:41:00,59.8,36.4,29.98,NNW,330,0.0,0.0,42,0.00,,CLR,0.00,VWS V14.00,2013-04-14 05:41:00,
2013-04-14 01:46:00,59.4,35.8,29.98,NNW,330,0.0,0.0,41,0.00,,CLR,0.00,VWS V14.00,2013-04-14 05:46:00,
2013-04-14 01:51:00,59.8,36.4,29.98,NNW,330,0.0,0.0,42,0.00,,CLR,0.00,VWS V14.00,2013-04-14 05:51:00,
2013-04-14 01:56:00,59.9,36.6,29.98,NNW,330,0.0,0.0,42,0.00,,CLR,0.00,VWS V14.00,2013-04-14 05:56:00,
2013-04-14 02:01:00,58.9,36.2,29.98,NNW,330,0.0,0.0,43,0.00,,CLR,0.00,VWS V14.00,2013-04-14 06:01:00,
2013-04-14 02:06:00,58.6,35.6,29.97,WNW,294,0.0,3.4,42,0.00,,CLR,0.00,VWS V14.00,2013-04-14 06:06:00,
2013-04-14 02:11:00,58.7,35.8,29.97,WNW,294,0.0,3.4,42,0.00,,CLR,0.00,VWS V14.00,2013-04-14 06:11:00,
2013-04-14 02:16:00,58.8,36.0,29.97,WNW,294,0.0,3.4,42,0.00,,CLR,0.00,VWS V14.00,2013-04-14 06:16:00,
2013-04-14 02:21:00,58.3,35.5,29.97,WNW,294,0.0,3.4,42,0.00,,CLR,0.00,VWS V14.00,2013-04-14 06:21:00,
2013-04-14 02:26:00,59.2,36.2,29.97,WNW,294,0.0,3.4,42,0.00,,CLR,0.00,VWS V14.00,2013-04-14 06:26:00,
2013-04-14 02:31:00,57.5,34.7,29.97,WNW,294,0.0,3.4,42,0.00,,CLR,0.00,VWS V14.00,2013-04-14 06:31:00,
2013-04-14 02:36:00,57.4,34.7,29.97,WNW,294,0.0,3.4,42,0.00,,CLR,0.00,VWS V14.00,2013-04-14 06:36:00,
2013-04-14 02:41:00,56.8,34.7,29.97,WNW,294,0.0,3.4,43,0.00,,CLR,0.00,VWS V14.00,2013-04-14 06:41:00,
2013-04-14 02:46:00,57.0,35.0,29.97,WNW,294,0.0,3.4,44,0.00,,CLR,0.00,VWS V14.00,2013-04-14 06:46:00,
2013-04-14 02:51:00,57.0,35.2,29.97,WNW,294,0.0,3.4,44,0.00,,CLR,0.00,VWS V14.00,2013-04-14 06:51:00,
2013-04-14 02:57:00,56.2,34.8,29.97,WNW,294,0.0,3.4,44,0.00,,CLR,0.00,VWS V14.00,2013-04-14 06:57:00,
2013-04-14 03:02:00,56.2,35.4,29.97,WNW,294,0.0,3.4,46,0.00,,CLR,0.00,VWS V14.00,2013-04-14 07:02:00,
2013-04-14 03:07:00,55.5,35.4,29.97,WNW,294,0.0,3.4,47,0.00,,CLR,0.00,VWS V14.00,2013-04-14 07:07:00,
2013-04-14 03:12:00,55.3,35.3,29.97,WNW,294,0.0,3.4,47,0.00,,CLR,0.00,VWS V14.00,2013-04-14 07:12:00,
2013-04-14 03:17:00,55.0,35.3,29.97,WNW,294,0.0,3.4,47,0.00,,CLR,0.00,VWS V14.00,2013-04-14 07:17:00,
2013-04-14 03:22:00,54.7,35.2,29.97,WNW,294,0.0,3.4,48,0.00,,CLR,0.00,VWS V14.00,2013-04-14 07:22:00,
2013-04-14 03:27:00,53.4,35.3,29.97,WNW,294,0.0,3.4,50,0.00,,CLR,0.00,VWS V14.00,2013-04-14 07:27:00,
2013-04-14 03:32:00,52.8,36.2,29.97,WNW,294,0.0,3.4,53,0.00,,CLR,0.00,VWS V14.00,2013-04-14 07:32:00,
2013-04-14 03:37:00,52.4,35.5,29.97,WNW,294,0.0,3.4,52,0.00,,CLR,0.00,VWS V14.00,2013-04-14 07:37:00,
2013-04-14 03:42:00,52.7,35.9,29.98,WNW,294,0.0,3.4,53,0.00,,CLR,0.00,VWS V14.00,2013-04-14 07:42:00,
2013-04-14 03:47:00,52.6,36.8,29.98,WNW,294,0.0,3.4,55,0.00,,CLR,0.00,VWS V14.00,2013-04-14 07:47:00,
2013-04-14 03:52:00,51.8,38.9,29.98,WNW,294,0.0,3.4,61,0.00,,CLR,0.00,VWS V14.00,2013-04-14 07:52:00,
2013-04-14 03:57:00,51.4,38.5,29.98,WNW,294,0.0,3.4,61,0.00,,CLR,0.00,VWS V14.00,2013-04-14 07:57:00,
2013-04-14 04:02:00,51.4,38.8,29.98,WNW,294,0.0,3.4,62,0.00,,CLR,0.00,VWS V14.00,2013-04-14 08:02:00,
2013-04-14 04:07:00,51.1,37.5,29.98,WNW,294,0.0,3.4,59,0.00,,CLR,0.00,VWS V14.00,2013-04-14 08:07:00,
2013-04-14 04:12:00,51.0,36.7,29.98,WNW,294,0.0,3.4,58,0.00,,CLR,0.00,VWS V14.00,2013-04-14 08:12:00,
2013-04-14 04:17:00,51.3,37.6,29.98,WNW,294,0.0,3.4,59,0.00,,CLR,0.00,VWS V14.00,2013-04-14 08:17:00,
2013-04-14 04:22:00,51.0,37.3,29.98,WNW,294,0.0,3.4,59,0.00,,CLR,0.00,VWS V14.00,2013-04-14 08:22:00,
2013-04-14 04:27:00,51.1,39.1,29.99,WNW,294,0.0,3.4,63,0.00,,CLR,0.00,VWS V14.00,2013-04-14 08:27:00,
2013-04-14 04:32:00,49.7,38.5,29.99,WNW,294,0.0,3.4,65,0.00,,CLR,0.00,VWS V14.00,2013-04-14 08:32:00,
2013-04-14 04:37:00,50.2,39.1,29.99,WNW,294,0.0,3.4,65,0.00,,CLR,0.00,VWS V14.00,2013-04-14 08:37:00,
2013-04-14 04:42:00,50.0,37.8,29.99,WNW,294,0.0,3.4,63,0.00,,CLR,0.00,VWS V14.00,2013-04-14 08:42:00,
2013-04-14 04:47:00,50.1,36.8,29.99,WNW,294,0.0,3.4,60,0.00,,CLR,0.00,VWS V14.00,2013-04-14 08:47:00,
2013-04-14 04:52:00,50.5,36.1,29.99,WNW,294,0.0,3.4,58,0.00,,CLR,0.00,VWS V14.00,2013-04-14 08:52:00,
2013-04-14 04:57:00,50.6,35.5,29.99,WNW,294,0.0,3.4,56,0.00,,CLR,0.00,VWS V14.00,2013-04-14 08:57:00,
2013-04-14 05:02:00,50.4,35.4,29.99,WNW,294,0.0,3.4,56,0.00,,CLR,0.00,VWS V14.00,2013-04-14 09:02:00,
2013-04-14 05:07:00,49.8,35.9,29.99,WNW,294,0.0,3.4,59,0.00,,CLR,0.00,VWS V14.00,2013-04-14 09:07:00,
2013-04-14 05:12:00,49.5,37.4,29.99,WNW,294,0.0,3.4,63,0.00,,CLR,0.00,VWS V14.00,2013-04-14 09:12:00,
2013-04-14 05:17:00,49.4,36.8,29.99,WNW,294,0.0,3.4,62,0.00,,CLR,0.00,VWS V14.00,2013-04-14 09:17:00,
2013-04-14 05:22:00,49.5,35.4,29.99,WNW,294,0.0,3.4,58,0.00,,CLR,0.00,VWS V14.00,2013-04-14 09:22:00,
2013-04-14 05:27:00,49.9,34.6,29.99,WNW,294,0.0,3.4,55,0.00,,CLR,0.00,VWS V14.00,2013-04-14 09:27:00,
2013-04-14 05:32:00,51.4,35.0,29.99,WNW,294,0.0,3.4,53,0.00,,CLR,0.00,VWS V14.00,2013-04-14 09:32:00,
2013-04-14 05:37:00,51.8,34.9,29.99,WNW,294,0.0,3.4,52,0.00,,CLR,0.00,VWS V14.00,2013-04-14 09:37:00,
2013-04-14 05:42:00,51.7,34.9,30.00,WNW,294,0.0,3.4,52,0.00,,CLR,0.00,VWS V14.00,2013-04-14 09:42:00,
2013-04-14 05:47:00,51.7,35.7,30.00,WNW,294,0.0,3.4,54,0.00,,CLR,0.00,VWS V14.00,2013-04-14 09:47:00,
2013-04-14 05:52:00,51.8,38.3,30.00,WNW,294,0.0,3.4,60,0.00,,CLR,0.00,VWS V14.00,2013-04-14 09:52:00,
2013-04-14 05:57:00,51.1,39.3,30.00,WNW,294,0.0,3.4,64,0.00,,CLR,0.00,VWS V14.00,2013-04-14 09:57:00,
2013-04-14 06:02:00,50.9,40.6,30.00,WNW,294,0.0,3.4,68,0.00,,CLR,0.00,VWS V14.00,2013-04-14 10:02:00,
2013-04-14 06:07:00,50.5,39.7,30.00,WNW,294,0.0,3.4,66,0.00,,CLR,0.00,VWS V14.00,2013-04-14 10:07:00,
2013-04-14 06:12:00,49.8,38.6,30.00,WNW,294,0.0,3.4,65,0.00,,CLR,0.00,VWS V14.00,2013-04-14 10:12:00,
2013-04-14 06:17:00,49.8,38.7,30.00,WNW,294,0.0,3.4,66,0.00,,CLR,0.00,VWS V14.00,2013-04-14 10:17:00,
2013-04-14 06:22:00,49.8,38.8,30.00,WNW,294,0.0,3.4,66,0.00,,CLR,0.00,VWS V14.00,2013-04-14 10:22:00,
2013-04-14 06:27:00,49.6,39.0,30.00,WNW,294,0.0,3.4,67,0.00,,CLR,0.00,VWS V14.00,2013-04-14 10:27:00,
2013-04-14 06:32:00,49.5,39.0,30.00,WNW,294,0.0,3.4,67,0.00,,CLR,0.00,VWS V14.00,2013-04-14 10:32:00,
2013-04-14 06:37:00,49.3,37.8,30.00,WNW,294,0.0,3.4,64,0.00,,CLR,0.00,VWS V14.00,2013-04-14 10:37:00,
2013-04-14 06:42:00,49.3,38.3,30.00,WNW,294,0.0,3.4,66,0.00,,CLR,0.00,VWS V14.00,2013-04-14 10:42:00,
2013-04-14 06:47:00,48.8,37.7,30.00,WNW,294,0.0,3.4,65,0.00,,CLR,0.00,VWS V14.00,2013-04-14 10:47:00,
2013-04-14 06:52:00,49.5,38.3,30.00,WNW,294,0.0,3.4,65,0.00,,CLR,0.00,VWS V14.00,2013-04-14 10:52:00,
2013-04-14 06:57:00,49.4,38.5,30.01,WNW,294,0.0,3.4,66,0.00,,CLR,0.00,VWS V14.00,2013-04-14 10:57:00,
2013-04-14 07:02:00,49.2,38.2,30.01,WNW,294,0.0,3.4,66,0.00,,CLR,0.00,VWS V14.00,2013-04-14 11:02:00,
2013-04-14 07:07:00,48.6,37.8,30.01,WNW,294,0.0,3.4,66,0.00,,CLR,0.00,VWS V14.00,2013-04-14 11:07:00,
2013-04-14 07:12:00,48.7,38.9,30.00,WNW,294,0.0,3.4,69,0.00,,CLR,0.00,VWS V14.00,2013-04-14 11:12:00,
2013-04-14 07:17:00,49.4,39.2,30.01,WNW,294,0.0,3.4,68,0.00,,CLR,0.00,VWS V14.00,2013-04-14 11:17:00,
2013-04-14 07:22:00,49.7,39.1,30.01,WNW,294,0.0,3.4,67,0.00,,CLR,0.00,VWS V14.00,2013-04-14 11:22:00,
2013-04-14 07:27:00,50.4,39.0,30.01,WNW,294,0.0,3.4,65,0.00,,CLR,0.00,VWS V14.00,2013-04-14 11:27:00,
2013-04-14 07:32:00,50.7,38.7,30.02,WNW,294,0.0,3.4,63,0.00,,CLR,0.00,VWS V14.00,2013-04-14 11:32:00,
2013-04-14 07:38:00,51.1,38.0,30.02,WNW,294,0.0,3.4,61,0.00,,CLR,0.00,VWS V14.00,2013-04-14 11:38:00,
2013-04-14 07:43:00,51.7,37.5,30.02,WNW,294,0.0,3.4,58,0.00,,CLR,0.00,VWS V14.00,2013-04-14 11:43:00,
2013-04-14 07:47:00,51.7,37.8,30.02,WNW,294,0.0,3.4,59,0.00,,CLR,0.00,VWS V14.00,2013-04-14 11:47:00,
2013-04-14 07:52:00,51.8,37.9,30.02,WNW,294,0.0,3.4,59,0.00,,CLR,0.00,VWS V14.00,2013-04-14 11:52:00,
2013-04-14 07:57:00,52.5,39.0,30.03,WNW,294,0.0,3.4,60,0.00,,CLR,0.00,VWS V14.00,2013-04-14 11:57:00,
2013-04-14 08:02:00,52.7,39.6,30.03,WNW,294,0.0,3.4,61,0.00,,CLR,0.00,VWS V14.00,2013-04-14 12:02:00,
2013-04-14 08:07:00,53.5,39.8,30.03,WNW,294,0.0,3.4,60,0.00,,CLR,0.00,VWS V14.00,2013-04-14 12:07:00,
2013-04-14 08:12:00,53.4,37.5,30.03,WNW,294,0.0,3.4,55,0.00,,CLR,0.00,VWS V14.00,2013-04-14 12:12:00,
2013-04-14 08:18:00,55.6,39.2,30.03,WNW,294,0.0,3.4,54,0.00,,CLR,0.00,VWS V14.00,2013-04-14 12:18:00,
2013-04-14 08:23:00,54.5,37.5,30.03,WNW,294,0.0,3.4,52,0.00,,CLR,0.00,VWS V14.00,2013-04-14 12:23:00,
2013-04-14 08:28:00,54.6,36.2,30.04,WNW,294,0.0,3.4,50,0.00,,CLR,0.00,VWS V14.00,2013-04-14 12:28:00,
2013-04-14 08:33:00,56.7,38.3,30.04,WNW,294,0.0,3.4,50,0.00,,CLR,0.00,VWS V14.00,2013-04-14 12:33:00,
2013-04-14 08:38:00,56.3,40.3,30.04,WNW,294,0.0,3.4,55,0.00,,CLR,0.00,VWS V14.00,2013-04-14 12:38:00,
2013-04-14 08:43:00,56.1,38.0,30.04,WNW,294,0.0,3.4,50,0.00,,CLR,0.00,VWS V14.00,2013-04-14 12:43:00,
2013-04-14 08:48:00,59.8,40.6,30.04,WNW,294,0.0,3.4,49,0.00,,CLR,0.00,VWS V14.00,2013-04-14 12:48:00,
2013-04-14 08:53:00,55.9,37.1,30.04,WNW,294,0.0,3.4,49,0.00,,CLR,0.00,VWS V14.00,2013-04-14 12:53:00,
2013-04-14 08:58:00,56.6,38.2,30.04,WNW,294,0.0,3.4,50,0.00,,CLR,0.00,VWS V14.00,2013-04-14 12:58:00,
2013-04-14 09:03:00,60.3,40.7,30.05,WNW,294,0.0,3.4,48,0.00,,CLR,0.00,VWS V14.00,2013-04-14 13:03:00,
2013-04-14 09:08:00,56.6,37.0,30.04,WNW,294,0.0,3.4,48,0.00,,CLR,0.00,VWS V14.00,2013-04-14 13:08:00,
2013-04-14 09:13:00,59.5,38.9,30.04,WNW,294,0.0,3.4,46,0.00,,CLR,0.00,VWS V14.00,2013-04-14 13:13:00,
2013-04-14 09:18:00,59.7,39.5,30.04,WNW,294,0.0,3.4,47,0.00,,CLR,0.00,VWS V14.00,2013-04-14 13:18:00,
2013-04-14 09:23:00,53.5,33.3,30.04,WNW,294,0.0,3.4,46,0.00,,CLR,0.00,VWS V14.00,2013-04-14 13:23:00,
2013-04-14 09:28:00,59.3,38.2,30.04,WNW,294,0.0,3.4,45,0.00,,CLR,0.00,VWS V14.00,2013-04-14 13:28:00,
2013-04-14 09:33:00,61.7,39.2,30.04,WNW,294,0.0,3.4,43,0.00,,CLR,0.00,VWS V14.00,2013-04-14 13:33:00,
2013-04-14 09:38:00,63.4,40.0,30.04,WNW,294,0.0,3.4,42,0.00,,CLR,0.00,VWS V14.00,2013-04-14 13:38:00,
2013-04-14 09:43:00,59.5,34.8,30.04,WNW,294,0.0,3.4,39,0.00,,CLR,0.00,VWS V14.00,2013-04-14 13:43:00,
2013-04-14 09:48:00,62.2,36.0,30.04,WNW,294,0.0,3.4,38,0.00,,CLR,0.00,VWS V14.00,2013-04-14 13:48:00,
2013-04-14 09:53:00,64.6,36.6,30.05,WNW,294,0.0,3.4,35,0.00,,CLR,0.00,VWS V14.00,2013-04-14 13:53:00,
2013-04-14 09:58:00,65.5,37.1,30.05,WNW,294,0.0,3.4,35,0.00,,CLR,0.00,VWS V14.00,2013-04-14 13:58:00,
2013-04-14 10:03:00,63.9,36.2,30.05,WNW,294,0.0,3.4,36,0.00,,CLR,0.00,VWS V14.00,2013-04-14 14:03:00,
2013-04-14 10:08:00,63.9,36.1,30.05,WNW,294,0.0,3.4,36,0.00,,CLR,0.00,VWS V14.00,2013-04-14 14:08:00,
2013-04-14 10:13:00,66.1,37.3,30.04,WNW,294,0.0,3.4,34,0.00,,CLR,0.00,VWS V14.00,2013-04-14 14:13:00,
2013-04-14 10:18:00,66.4,37.5,30.05,WNW,294,0.0,3.4,34,0.00,,CLR,0.00,VWS V14.00,2013-04-14 14:18:00,
2013-04-14 10:23:00,65.8,35.9,30.04,WNW,294,0.0,3.4,33,0.00,,CLR,0.00,VWS V14.00,2013-04-14 14:23:00,
2013-04-14 10:28:00,68.4,37.7,30.04,WNW,294,0.0,3.4,32,0.00,,CLR,0.00,VWS V14.00,2013-04-14 14:28:00,
2013-04-14 10:33:00,69.9,38.2,30.05,ESE,104,4.7,4.7,31,0.00,,CLR,0.00,VWS V14.00,2013-04-14 14:33:00,
2013-04-14 10:38:00,69.6,37.2,30.05,East,84,2.0,5.8,30,0.00,,CLR,0.00,VWS V14.00,2013-04-14 14:38:00,
2013-04-14 10:43:00,69.6,37.5,30.04,SE,134,3.4,5.8,31,0.00,,CLR,0.00,VWS V14.00,2013-04-14 14:43:00,
2013-04-14 10:48:00,69.5,37.9,30.05,ESE,104,0.0,5.8,31,0.00,,CLR,0.00,VWS V14.00,2013-04-14 14:48:00,
2013-04-14 10:53:00,68.3,35.1,30.05,East,86,0.0,5.8,29,0.00,,CLR,0.00,VWS V14.00,2013-04-14 14:53:00,
2013-04-14 10:58:00,67.4,34.3,30.04,NNE,14,0.0,5.8,29,0.00,,CLR,0.00,VWS V14.00,2013-04-14 14:58:00,
2013-04-14 11:03:00,67.2,33.8,30.04,ESE,108,0.0,5.8,29,0.00,,CLR,0.00,VWS V14.00,2013-04-14 15:03:00,
2013-04-14 11:08:00,69.1,35.8,30.04,SSE,155,3.4,6.0,29,0.00,,CLR,0.00,VWS V14.00,2013-04-14 15:08:00,
2013-04-14 11:13:00,69.4,36.3,30.04,SSW,201,5.5,6.3,30,0.00,,CLR,0.00,VWS V14.00,2013-04-14 15:13:00,
2013-04-14 11:18:00,69.7,36.1,30.04,SSW,198,0.0,6.3,29,0.00,,CLR,0.00,VWS V14.00,2013-04-14 15:18:00,
2013-04-14 11:23:00,69.2,34.6,30.04,East,91,2.5,8.6,28,0.00,,CLR,0.00,VWS V14.00,2013-04-14 15:23:00,
2013-04-14 11:28:00,69.4,35.1,30.04,SSW,200,4.6,8.6,28,0.00,,CLR,0.00,VWS V14.00,2013-04-14 15:28:00,
2013-04-14 11:33:00,70.2,36.0,30.04,South,184,0.0,8.6,28,0.00,,CLR,0.00,VWS V14.00,2013-04-14 15:33:00,
2013-04-14 11:38:00,70.0,35.8,30.04,ESE,120,3.0,8.6,28,0.00,,CLR,0.00,VWS V14.00,2013-04-14 15:38:00,
2013-04-14 11:43:00,67.1,33.5,30.04,SSW,193,0.0,8.6,29,0.00,,CLR,0.00,VWS V14.00,2013-04-14 15:43:00,
2013-04-14 11:48:00,67.7,33.8,30.03,South,177,2.9,8.6,28,0.00,,CLR,0.00,VWS V14.00,2013-04-14 15:48:00,
2013-04-14 11:53:00,66.4,32.1,30.03,South,184,0.0,8.6,28,0.00,,CLR,0.00,VWS V14.00,2013-04-14 15:53:00,
2013-04-14 11:58:00,66.9,32.1,30.03,SSW,201,0.0,8.6,27,0.00,,CLR,0.00,VWS V14.00,2013-04-14 15:58:00,
2013-04-14 12:03:00,66.7,32.2,30.03,South,172,0.0,8.6,28,0.00,,CLR,0.00,VWS V14.00,2013-04-14 16:03:00,
2013-04-14 12:08:00,67.8,33.5,30.03,South,179,0.0,8.6,28,0.00,,CLR,0.00,VWS V14.00,2013-04-14 16:08:00,
2013-04-14 12:13:00,68.4,33.4,30.02,ENE,75,0.0,8.6,27,0.00,,CLR,0.00,VWS V14.00,2013-04-14 16:13:00,
2013-04-14 12:18:00,67.9,33.2,30.02,SSW,210,4.2,8.7,28,0.00,,CLR,0.00,VWS V14.00,2013-04-14 16:18:00,
2013-04-14 12:23:00,69.5,35.2,30.03,SE,129,0.0,8.7,28,0.00,,CLR,0.00,VWS V14.00,2013-04-14 16:23:00,
2013-04-14 12:28:00,69.9,35.8,30.03,South,191,0.0,8.7,28,0.00,,CLR,0.00,VWS V14.00,2013-04-14 16:28:00,
2013-04-14 12:33:00,70.0,35.6,30.03,SW,225,4.8,8.7,28,0.00,,CLR,0.00,VWS V14.00,2013-04-14 16:33:00,
2013-04-14 12:38:00,70.5,35.2,30.03,SSW,212,7.9,10.3,27,0.00,,CLR,0.00,VWS V14.00,2013-04-14 16:38:00,
2013-04-14 12:43:00,70.4,34.7,30.03,East,101,3.4,10.3,27,0.00,,CLR,0.00,VWS V14.00,2013-04-14 16:43:00,
2013-04-14 12:48:00,67.9,33.6,30.03,ESE,114,0.0,10.3,28,0.00,,CLR,0.00,VWS V14.00,2013-04-14 16:48:00,
2013-04-14 12:53:00,62.1,26.8,30.02,South,173,0.0,10.3,26,0.00,,CLR,0.00,VWS V14.00,2013-04-14 16:53:00,
2013-04-14 12:58:00,72.6,36.8,30.02,East,87,4.2,10.3,27,0.00,,CLR,0.00,VWS V14.00,2013-04-14 16:58:00,
2013-04-14 13:03:00,71.9,36.3,30.02,SW,236,3.3,10.3,27,0.00,,CLR,0.00,VWS V14.00,2013-04-14 17:03:00,
2013-04-14 13:08:00,73.0,37.1,30.02,SSW,200,0.0,10.3,27,0.00,,CLR,0.00,VWS V14.00,2013-04-14 17:08:00,
2013-04-14 13:13:00,71.9,35.8,30.02,South,176,0.0,10.3,27,0.00,,CLR,0.00,VWS V14.00,2013-04-14 17:13:00,
2013-04-14 13:18:00,73.1,37.9,30.03,South,187,0.0,10.3,28,0.00,,CLR,0.00,VWS V14.00,2013-04-14 17:18:00,
2013-04-14 13:23:00,73.3,36.9,30.02,WSW,238,5.1,10.3,26,0.00,,CLR,0.00,VWS V14.00,2013-04-14 17:23:00,
2013-04-14 13:28:00,74.1,37.1,30.02,SW,228,0.0,10.3,26,0.00,,CLR,0.00,VWS V14.00,2013-04-14 17:28:00,
2013-04-14 13:33:00,72.1,33.8,30.02,SW,215,0.0,12.3,24,0.00,,CLR,0.00,VWS V14.00,2013-04-14 17:33:00,
2013-04-14 13:38:00,73.2,34.7,30.02,SW,218,5.3,12.3,24,0.00,,CLR,0.00,VWS V14.00,2013-04-14 17:38:00,
2013-04-14 13:43:00,73.2,33.7,30.02,NW,312,6.3,12.3,23,0.00,,CLR,0.00,VWS V14.00,2013-04-14 17:43:00,
2013-04-14 13:48:00,74.7,35.3,30.02,SW,233,6.9,12.3,24,0.00,,CLR,0.00,VWS V14.00,2013-04-14 17:48:00,
2013-04-14 13:53:00,73.1,34.4,30.01,SE,131,4.2,12.3,24,0.00,,CLR,0.00,VWS V14.00,2013-04-14 17:53:00,
2013-04-14 13:58:00,73.7,36.2,30.01,SSE,149,3.0,12.3,26,0.00,,CLR,0.00,VWS V14.00,2013-04-14 17:58:00,
2013-04-14 14:03:00,74.0,35.4,30.01,South,173,0.0,12.3,24,0.00,,CLR,0.00,VWS V14.00,2013-04-14 18:03:00,
2013-04-14 14:08:00,73.1,35.7,30.01,SSW,210,3.3,12.3,26,0.00,,CLR,0.00,VWS V14.00,2013-04-14 18:08:00,
2013-04-14 14:13:00,75.1,36.9,30.01,SSE,153,5.9,12.3,25,0.00,,CLR,0.00,VWS V14.00,2013-04-14 18:13:00,
2013-04-14 14:18:00,74.8,35.7,30.00,South,187,5.7,12.3,24,0.00,,CLR,0.00,VWS V14.00,2013-04-14 18:18:00,
2013-04-14 14:23:00,75.1,36.4,30.00,SE,134,0.0,12.3,24,0.00,,CLR,0.00,VWS V14.00,2013-04-14 18:23:00,
2013-04-14 14:28:00,75.2,35.4,30.00,West,277,9.3,12.3,24,0.00,,CLR,0.00,VWS V14.00,2013-04-14 18:28:00,
2013-04-14 14:33:00,75.1,36.5,30.00,South,190,0.0,12.3,25,0.00,,CLR,0.00,VWS V14.00,2013-04-14 18:33:00,
2013-04-14 14:38:00,75.4,36.9,30.00,South,188,6.3,12.3,25,0.00,,CLR,0.00,VWS V14.00,2013-04-14 18:38:00,
2013-04-14 14:43:00,74.5,35.6,29.99,SSW,208,0.0,12.3,24,0.00,,CLR,0.00,VWS V14.00,2013-04-14 18:43:00,
2013-04-14 14:48:00,75.1,36.7,29.99,SE,141,0.0,12.3,25,0.00,,CLR,0.00,VWS V14.00,2013-04-14 18:48:00,
2013-04-14 14:54:00,75.2,38.0,29.99,ESE,120,5.4,12.3,26,0.00,,CLR,0.00,VWS V14.00,2013-04-14 18:54:00,
2013-04-14 14:59:00,73.5,35.0,29.99,ESE,107,2.5,12.3,24,0.00,,CLR,0.00,VWS V14.00,2013-04-14 18:59:00,
2013-04-14 15:04:00,74.3,36.0,29.99,ESE,120,6.8,12.3,25,0.00,,CLR,0.00,VWS V14.00,2013-04-14 19:04:00,
2013-04-14 15:09:00,74.6,35.9,29.99,South,184,3.3,14.2,24,0.00,,CLR,0.00,VWS V14.00,2013-04-14 19:09:00,
2013-04-14 15:14:00,73.6,34.1,29.99,ESE,117,5.5,14.2,24,0.00,,CLR,0.00,VWS V14.00,2013-04-14 19:14:00,
2013-04-14 15:19:00,75.5,35.9,29.99,South,183,8.5,14.2,24,0.00,,CLR,0.00,VWS V14.00,2013-04-14 19:19:00,
2013-04-14 15:24:00,74.7,34.4,29.98,West,262,4.2,14.2,23,0.00,,CLR,0.00,VWS V14.00,2013-04-14 19:24:00,
2013-04-14 15:29:00,75.1,35.6,29.98,SW,226,5.2,14.2,24,0.00,,CLR,0.00,VWS V14.00,2013-04-14 19:29:00,
2013-04-14 15:34:00,75.3,36.5,29.98,SSW,202,3.2,14.2,24,0.00,,CLR,0.00,VWS V14.00,2013-04-14 19:34:00,
2013-04-14 15:39:00,75.4,36.5,29.97,SSW,194,0.0,14.2,24,0.00,,CLR,0.00,VWS V14.00,2013-04-14 19:39:00,
2013-04-14 15:44:00,76.2,36.3,29.97,SSW,202,9.6,14.7,24,0.00,,CLR,0.00,VWS V14.00,2013-04-14 19:44:00,
2013-04-14 15:49:00,76.2,36.0,29.97,SSW,208,5.5,14.7,23,0.00,,CLR,0.00,VWS V14.00,2013-04-14 19:49:00,
2013-04-14 15:54:00,76.2,36.6,29.97,South,173,0.0,14.7,24,0.00,,CLR,0.00,VWS V14.00,2013-04-14 19:54:00,
2013-04-14 15:59:00,75.9,36.5,29.97,SSW,198,5.5,14.7,24,0.00,,CLR,0.00,VWS V14.00,2013-04-14 19:59:00,
2013-04-14 16:04:00,75.9,36.5,29.97,South,191,4.3,14.7,24,0.00,,CLR,0.00,VWS V14.00,2013-04-14 20:04:00,
2013-04-14 16:09:00,76.1,36.6,29.97,ESE,112,3.3,14.7,24,0.00,,CLR,0.00,VWS V14.00,2013-04-14 20:09:00,
2013-04-14 16:14:00,76.1,36.7,29.97,SSW,201,3.4,14.7,24,0.00,,CLR,0.00,VWS V14.00,2013-04-14 20:14:00,
2013-04-14 16:19:00,76.1,36.4,29.97,WSW,248,9.1,14.7,24,0.00,,CLR,0.00,VWS V14.00,2013-04-14 20:19:00,
2013-04-14 16:24:00,75.7,37.0,29.97,WSW,249,0.0,14.7,25,0.00,,CLR,0.00,VWS V14.00,2013-04-14 20:24:00,
2013-04-14 16:29:00,75.9,36.7,29.97,SSW,204,0.0,14.7,24,0.00,,CLR,0.00,VWS V14.00,2013-04-14 20:29:00,
2013-04-14 16:34:00,75.0,35.9,29.97,SW,218,6.0,14.7,24,0.00,,CLR,0.00,VWS V14.00,2013-04-14 20:34:00,
2013-04-14 16:39:00,74.4,36.1,29.97,SE,136,0.0,14.7,25,0.00,,CLR,0.00,VWS V14.00,2013-04-14 20:39:00,
2013-04-14 16:44:00,75.1,37.6,29.97,SSE,158,2.7,14.7,26,0.00,,CLR,0.00,VWS V14.00,2013-04-14 20:44:00,
2013-04-14 16:49:00,75.7,38.5,29.97,SSW,194,7.6,14.7,26,0.00,,CLR,0.00,VWS V14.00,2013-04-14 20:49:00,
2013-04-14 16:54:00,74.9,38.6,29.97,SW,214,0.0,14.7,27,0.00,,CLR,0.00,VWS V14.00,2013-04-14 20:54:00,
2013-04-14 16:59:00,73.1,37.3,29.97,SSE,153,0.0,14.7,27,0.00,,CLR,0.00,VWS V14.00,2013-04-14 20:59:00,
2013-04-14 17:04:00,71.5,35.9,29.97,SE,141,0.0,14.7,27,0.00,,CLR,0.00,VWS V14.00,2013-04-14 21:04:00,
2013-04-14 17:09:00,68.4,33.0,29.97,SW,232,5.3,14.7,27,0.00,,CLR,0.00,VWS V14.00,2013-04-14 21:09:00,
2013-04-14 17:14:00,74.3,38.0,29.98,SSE,160,0.0,14.7,27,0.00,,CLR,0.00,VWS V14.00,2013-04-14 21:14:00,
2013-04-14 17:19:00,74.1,38.7,29.98,South,179,0.0,14.7,28,0.00,,CLR,0.00,VWS V14.00,2013-04-14 21:19:00,
2013-04-14 17:24:00,73.9,37.9,29.98,SSE,165,8.6,14.7,27,0.00,,CLR,0.00,VWS V14.00,2013-04-14 21:24:00,
2013-04-14 17:29:00,72.6,36.4,29.98,WSW,250,2.5,14.7,27,0.00,,CLR,0.00,VWS V14.00,2013-04-14 21:29:00,
2013-04-14 17:34:00,71.0,35.4,29.98,SSE,163,4.2,14.7,27,0.00,,CLR,0.00,VWS V14.00,2013-04-14 21:34:00,
2013-04-14 17:39:00,72.4,36.7,29.98,SSE,152,7.0,14.7,27,0.00,,CLR,0.00,VWS V14.00,2013-04-14 21:39:00,
2013-04-14 17:44:00,72.9,37.3,29.98,SSW,195,2.9,14.7,27,0.00,,CLR,0.00,VWS V14.00,2013-04-14 21:44:00,
2013-04-14 17:49:00,74.2,39.0,29.98,SSW,201,3.4,14.7,28,0.00,,CLR,0.00,VWS V14.00,2013-04-14 21:49:00,
2013-04-14 17:54:00,74.6,39.8,29.98,SSE,158,0.0,14.7,28,0.00,,CLR,0.00,VWS V14.00,2013-04-14 21:54:00,
2013-04-14 17:59:00,73.6,39.5,29.98,SE,143,0.0,14.7,29,0.00,,CLR,0.00,VWS V14.00,2013-04-14 21:59:00,
2013-04-14 18:04:00,74.5,40.3,29.98,SSW,198,10.3,14.7,29,0.00,,CLR,0.00,VWS V14.00,2013-04-14 22:04:00,
2013-04-14 18:09:00,74.4,40.7,29.98,SSW,205,6.5,14.7,30,0.00,,CLR,0.00,VWS V14.00,2013-04-14 22:09:00,
2013-04-14 18:14:00,74.4,41.2,29.99,SSE,153,0.0,14.7,30,0.00,,CLR,0.00,VWS V14.00,2013-04-14 22:14:00,
2013-04-14 18:19:00,74.1,41.0,29.98,SSW,197,0.0,14.7,30,0.00,,CLR,0.00,VWS V14.00,2013-04-14 22:19:00,
2013-04-14 18:24:00,74.0,41.4,29.98,SSW,208,6.1,14.7,31,0.00,,CLR,0.00,VWS V14.00,2013-04-14 22:24:00,
2013-04-14 18:29:00,73.8,41.4,29.98,SW,218,0.0,14.7,31,0.00,,CLR,0.00,VWS V14.00,2013-04-14 22:29:00,
2013-04-14 18:34:00,73.7,41.7,29.98,South,186,2.9,14.7,32,0.00,,CLR,0.00,VWS V14.00,2013-04-14 22:34:00,
2013-04-14 18:39:00,73.7,41.8,29.98,South,169,0.0,14.7,32,0.00,,CLR,0.00,VWS V14.00,2013-04-14 22:39:00,
2013-04-14 18:44:00,73.8,42.1,29.98,SSW,197,0.0,14.7,32,0.00,,CLR,0.00,VWS V14.00,2013-04-14 22:44:00,
2013-04-14 18:49:00,73.0,41.8,29.98,SSW,201,5.7,14.7,32,0.00,,CLR,0.00,VWS V14.00,2013-04-14 22:49:00,
2013-04-14 18:54:00,71.4,40.8,29.98,SW,225,4.6,14.7,33,0.00,,CLR,0.00,VWS V14.00,2013-04-14 22:54:00,
2013-04-14 18:59:00,71.2,40.4,29.98,South,186,2.4,14.7,33,0.00,,CLR,0.00,VWS V14.00,2013-04-14 22:59:00,
2013-04-14 19:05:00,72.6,41.8,29.99,SSW,195,6.2,14.7,33,0.00,,CLR,0.00,VWS V14.00,2013-04-14 23:05:00,
2013-04-14 19:10:00,73.0,42.7,29.99,SSW,208,7.0,14.7,34,0.00,,CLR,0.00,VWS V14.00,2013-04-14 23:10:00,
2013-04-14 19:15:00,72.9,43.0,29.99,SW,221,4.8,14.7,34,0.00,,CLR,0.00,VWS V14.00,2013-04-14 23:15:00,
2013-04-14 19:20:00,72.7,43.4,29.99,WSW,243,5.8,14.7,35,0.00,,CLR,0.00,VWS V14.00,2013-04-14 23:20:00,
2013-04-14 19:25:00,72.0,43.4,29.98,South,169,0.0,14.7,36,0.00,,CLR,0.00,VWS V14.00,2013-04-14 23:25:00,
2013-04-14 19:30:00,72.3,44.5,29.98,WSW,246,8.0,14.7,37,0.00,,CLR,0.00,VWS V14.00,2013-04-14 23:30:00,
2013-04-14 19:35:00,71.8,44.6,29.98,WSW,255,6.7,14.7,38,0.00,,CLR,0.00,VWS V14.00,2013-04-14 23:35:00,
2013-04-14 19:40:00,69.5,43.0,29.98,SW,225,6.0,14.7,38,0.00,,CLR,0.00,VWS V14.00,2013-04-14 23:40:00,
2013-04-14 19:45:00,69.7,43.6,29.98,South,184,3.1,14.7,39,0.00,,CLR,0.00,VWS V14.00,2013-04-14 23:45:00,
2013-04-14 19:50:00,68.3,42.9,29.98,WSW,248,9.4,14.7,40,0.00,,CLR,0.00,VWS V14.00,2013-04-14 23:50:00,
2013-04-14 19:55:00,68.1,43.3,29.98,SW,218,10.7,14.7,41,0.00,,CLR,0.00,VWS V14.00,2013-04-14 23:55:00,
2013-04-14 20:00:00,69.2,44.8,29.98,SW,221,6.2,14.7,41,0.00,,CLR,0.00,VWS V14.00,2013-04-15 00:00:00,
2013-04-14 20:05:00,69.5,45.4,29.98,South,186,2.7,14.7,42,0.00,,CLR,0.00,VWS V14.00,2013-04-15 00:05:00,
2013-04-14 20:10:00,68.5,44.8,29.98,SSW,210,3.4,14.7,42,0.00,,CLR,0.00,VWS V14.00,2013-04-15 00:10:00,
2013-04-14 20:15:00,68.7,45.2,29.98,SSW,204,3.2,14.7,43,0.00,,CLR,0.00,VWS V14.00,2013-04-15 00:15:00,
2013-04-14 20:20:00,66.9,43.9,29.98,WNW,285,6.7,14.7,43,0.00,,CLR,0.00,VWS V14.00,2013-04-15 00:20:00,
2013-04-14 20:25:00,67.4,44.6,29.97,WSW,238,0.0,14.7,44,0.00,,CLR,0.00,VWS V14.00,2013-04-15 00:25:00,
2013-04-14 20:30:00,68.2,45.3,29.97,South,191,11.7,14.7,44,0.00,,CLR,0.00,VWS V14.00,2013-04-15 00:30:00,
2013-04-14 20:35:00,66.3,43.6,29.97,SW,235,0.0,14.7,44,0.00,,CLR,0.00,VWS V14.00,2013-04-15 00:35:00,
2013-04-14 20:40:00,66.2,43.5,29.97,WSW,245,4.1,14.7,44,0.00,,CLR,0.00,VWS V14.00,2013-04-15 00:40:00,
2013-04-14 20:45:00,65.7,43.2,29.97,SSW,201,3.1,14.7,44,0.00,,CLR,0.00,VWS V14.00,2013-04-15 00:45:00,
2013-04-14 20:50:00,64.8,42.5,29.97,SW,218,3.2,14.7,44,0.00,,CLR,0.00,VWS V14.00,2013-04-15 00:50:00,
2013-04-14 20:55:00,64.3,42.5,29.97,SSW,202,3.4,14.7,45,0.00,,CLR,0.00,VWS V14.00,2013-04-15 00:55:00,
2013-04-14 21:00:00,63.5,42.0,29.97,South,190,0.0,14.7,45,0.00,,CLR,0.00,VWS V14.00,2013-04-15 01:00:00,
2013-04-14 21:05:00,62.4,41.3,29.97,SSW,193,0.0,14.7,46,0.00,,CLR,0.00,VWS V14.00,2013-04-15 01:05:00,
2013-04-14 21:10:00,62.6,41.8,29.97,SSW,208,5.1,14.7,46,0.00,,CLR,0.00,VWS V14.00,2013-04-15 01:10:00,
2013-04-14 21:15:00,63.2,42.5,29.97,SSE,165,5.3,14.7,47,0.00,,CLR,0.00,VWS V14.00,2013-04-15 01:15:00,
2013-04-14 21:20:00,63.7,43.1,29.97,South,181,3.3,14.7,47,0.00,,CLR,0.00,VWS V14.00,2013-04-15 01:20:00,
2013-04-14 21:25:00,63.2,42.8,29.97,SSW,204,0.0,14.7,47,0.00,,CLR,0.00,VWS V14.00,2013-04-15 01:25:00,
2013-04-14 21:30:00,61.6,41.5,29.97,SW,224,0.0,14.7,48,0.00,,CLR,0.00,VWS V14.00,2013-04-15 01:30:00,
2013-04-14 22:08:00,61.7,43.1,29.97,WSW,242,4.2,14.7,50,0.00,,CLR,0.00,VWS V14.00,2013-04-15 02:08:00,
2013-04-14 22:13:00,61.6,43.1,29.97,SSW,211,6.8,14.7,51,0.00,,CLR,0.00,VWS V14.00,2013-04-15 02:13:00,
2013-04-14 22:18:00,61.2,42.7,29.98,SW,224,0.0,14.7,51,0.00,,CLR,0.00,VWS V14.00,2013-04-15 02:18:00,
2013-04-14 22:23:00,61.7,43.6,29.98,SSW,201,6.2,14.7,51,0.00,,CLR,0.00,VWS V14.00,2013-04-15 02:23:00,
2013-04-14 22:28:00,63.6,45.7,29.98,SW,229,5.2,14.7,52,0.00,,CLR,0.00,VWS V14.00,2013-04-15 02:28:00,
2013-04-14 22:33:00,60.7,43.4,29.98,SSW,204,5.0,14.7,53,0.00,,CLR,0.00,VWS V14.00,2013-04-15 02:33:00,
2013-04-14 22:38:00,63.4,46.4,29.98,WSW,252,5.0,14.7,54,0.00,,CLR,0.00,VWS V14.00,2013-04-15 02:38:00,
2013-04-14 22:43:00,62.5,45.8,29.98,SSW,201,2.6,14.7,54,0.00,,CLR,0.00,VWS V14.00,2013-04-15 02:43:00,
2013-04-14 22:48:00,64.2,47.8,29.98,SW,225,2.9,14.7,55,0.00,,OVC110,0.00,VWS V14.00,2013-04-15 02:48:00,
2013-04-14 22:53:00,63.4,47.1,29.98,South,173,4.8,14.7,55,0.00,,OVC110,0.00,VWS V14.00,2013-04-15 02:53:00,
2013-04-14 22:58:00,61.0,45.0,29.98,SW,221,0.0,14.7,56,0.00,,OVC110,0.00,VWS V14.00,2013-04-15 02:58:00,
2013-04-14 23:03:00,62.6,46.6,29.98,WSW,240,8.0,14.7,56,0.00,,OVC110,0.00,VWS V14.00,2013-04-15 03:03:00,
2013-04-14 23:08:00,61.8,46.0,29.98,SW,225,5.8,14.7,56,0.00,,OVC110,0.00,VWS V14.00,2013-04-15 03:08:00,
2013-04-14 23:13:00,62.3,46.8,29.99,SSW,195,0.0,14.7,57,0.00,,OVC110,0.00,VWS V14.00,2013-04-15 03:13:00,
2013-04-14 23:18:00,61.0,46.0,29.99,SW,214,8.6,14.7,58,0.00,,OVC110,0.00,VWS V14.00,2013-04-15 03:18:00,
2013-04-14 23:23:00,60.7,46.3,29.99,South,181,0.0,14.7,59,0.00,,OVC110,0.00,VWS V14.00,2013-04-15 03:23:00,
2013-04-14 23:28:00,59.9,46.7,30.00,SW,226,7.0,14.7,62,0.00,,OVC110,0.00,VWS V14.00,2013-04-15 03:28:00,
2013-04-14 23:33:00,55.0,43.2,30.00,SW,221,0.0,14.7,64,0.00,,OVC110,0.00,VWS V14.00,2013-04-15 03:33:00,
2013-04-14 23:38:00,55.2,44.6,30.00,SW,236,0.0,14.7,67,0.00,,OVC110,0.00,VWS V14.00,2013-04-15 03:38:00,
2013-04-14 23:43:00,52.6,43.4,30.00,SW,226,0.0,14.7,71,0.00,,OVC110,0.00,VWS V14.00,2013-04-15 03:43:00,
2013-04-14 23:48:00,61.3,52.7,30.00,West,269,0.0,14.7,73,0.00,,OVC095,0.00,VWS V14.00,2013-04-15 03:48:00,
2013-04-14 23:53:00,61.3,53.8,30.00,West,269,0.0,14.7,76,0.00,,OVC095,0.00,VWS V14.00,2013-04-15 03:53:00,
2013-04-14 23:58:00,60.4,53.7,30.00,West,269,0.0,14.7,78,0.00,,OVC095,0.00,VWS V14.00,2013-04-15 03:58:00,